Regional Weather Roundup
Issued by NWS

Home | Current Version | Previous Version | Text Only | Print | Product List | Glossary Off
Versions: 1 2 3 4 5 6 7 8 9 10 11 12 13 14 15 16 17 18 19 20 21 22 23 24 25 26 27 28

000
ASUS45 KBOU 230810
RWRCO

WEATHER ROUNDUP FOR COLORADO
NATIONAL WEATHER SERVICE DENVER/BOULDER CO
100 AM MST THU NOV 23 2017

NOTE: "FAIR" INDICATES FEW OR NO CLOUDS BELOW 12000 FEET WITH NO
SIGNIFICANT WEATHER AND/OR OBSTRUCTIONS TO VISIBILITY.

COZ001>005-013-030-031-230900-
...NORTHWEST COLORADO...

CITY           SKY/WX    TMP DP  RH WIND       PRES   REMARKS
CRAIG          FAIR      28  25  88 CALM      30.43R FOG
HAYDEN         MOCLDY    37  34  89 E7        30.44S
MEEKER         FAIR      31  29  92 E3        30.44F
RABBIT EARS PA CLOUDY   N/A N/A N/A W6        30.53S FOG
STEAMBOAT SPGS CLOUDY    35  34  99 CALM      30.44R
WALDEN         FAIR      34  28  80 CALM      30.44F
$$

COZ006>008-011-230900-
...WEST CENTRAL VALLEYS...

CITY           SKY/WX    TMP DP  RH WIND       PRES   REMARKS
GRAND JUNCTION FAIR      36  29  75 CALM      30.40F
MONTROSE       FAIR      35  29  78 S6        30.45R WCI  30
EAGLE          FAIR      28  26  92 CALM      30.49F
RIFLE          FAIR      32  30  92 E3        30.44F
DELTA          FAIR      37  29  72 CALM      30.43F
NUCLA          FAIR      37  30  75 NE3       30.46R
$$

COZ017>023-064>068-230900-
...SOUTHWEST COLORADO...

CITY           SKY/WX    TMP DP  RH WIND       PRES   REMARKS
DURANGO        FAIR      29  22  75 N7        30.37F WCI  22
CORTEZ         FAIR      30  24  78 NE6       30.38S WCI  24
PAGOSA SPRINGS FAIR      37  24  58 CALM      30.42F
TELLURIDE      FAIR      37  28  69 SE6       30.50F
WOLF CREEK PAS FAIR      32  23  69 N3        30.64R
$$

COZ009-010-012-014-032>034-037-058>063-230900-
...CENTRAL COLORADO...

CITY           SKY/WX    TMP DP  RH WIND       PRES   REMARKS
ASPEN          FAIR      35  30  82 SW9       30.46F WCI  28
BUENA VISTA    FAIR      42  32  68 NW13      30.42F
COPPER MTN     CLOUDY    34  32  93 MISG      30.59S FOG
BERTHOUD PASS  CLOUDY    27  16  63 NW25G33   30.55F WCI  11
COTTONWOOD PAS FAIR      43  32  65 NW8       30.50F
GUNNISON       FAIR      26  25  96 CALM      30.49F
KREMMLING      FAIR      36  32  87 CALM      30.46F
LEADVILLE      CLOUDY    34  29  82 N6        30.51F WCI  29
MONARCH PASS   FAIR      32  27  80 W14G25    30.67F WCI  22
SALIDA         FAIR      42  32  67 SW8       30.49F
SUNLIGHT       FAIR      32  30  93 W5        30.61S WCI  27
WILKERSON PASS FAIR      34  27  75 N12G21    30.54F WCI  25
$$

COZ069>075-230900-
...SAN LUIS VALLEY/SANGRE DE CRISTO MOUNTAINS...

CITY           SKY/WX    TMP DP  RH WIND       PRES   REMARKS
ALAMOSA        FAIR      27  22  81 S5        30.41F WCI  22
DEL NORTE      FAIR      39  28  63 W8        30.43F
LA VETA PASS   FAIR      34  28  80 SW14        N/A  WCI  24
SAGUACHE       FAIR      41  32  70 NW16      30.43F
$$

COZ035-036-038>040-230900-
...NORTHERN COLORADO FRONT RANGE...

CITY           SKY/WX    TMP DP  RH WIND       PRES   REMARKS
DENVER INTL AP FAIR      47  33  58 SW9       30.24F
DMNS CITY PARK   N/A     46  33  59 SE8       30.25S
AURORA         PTCLDY    44  34  66 S9        30.26F
FRONT RANGE AP FAIR      44  36  71 S7        30.26S
ERIE MUNI ARPT FAIR      37  33  83 CALM      30.28F
BOULDER MUN AP FAIR      50  34  53 W5        30.23F
CENTENNIAL     FAIR      41  33  73 CALM      30.27F
BROOMFIELD     FAIR      57  32  38 W14       30.26S
FORT COLLINS   FAIR      44  35  70 VRB3      30.23F
LONGMONT       FAIR      42  34  73 W3        30.25S
$$

COZ041-046-047-076>085-087-088-230900-
...PIKES PEAK/PALMER DIVIDE AND SOUTHERN FOOTHILLS...

CITY           SKY/WX    TMP DP  RH WIND       PRES   REMARKS
COLO. SPRINGS  FAIR      46  32  58 NW3       30.30F
A. F. ACADEMY  FAIR      34  29  83 N8        30.31F WCI  27
SCHRIEVER AFB  FAIR      49  30  48 N7        30.30F
CHEYENNE MTN   FAIR      49  30  47 CALM      30.27F
ELLICOTT         N/A    N/A N/A N/A NE3       30.28F
FALCON         FAIR      42  30  63 NW8       30.32F
FORT CARSON    FAIR      44  30  58 N7        30.27F
LIMON          FAIR      38  33  82 NW6       30.25F
MONUMENT HILL  FAIR      37  30  75 W9        30.34S
CANON CITY     FAIR      52  34  50 MISG      30.27F
WALSENBURG     FAIR      50  34  53 W8        30.30S
TRINIDAD       FAIR      41  29  62 W12       30.28F
$$

COZ042>045-048>051-090-091-230900-
...NORTHEAST COLORADO...

CITY           SKY/WX    TMP DP  RH WIND       PRES   REMARKS
GREELEY ARPT   FAIR      36  32  85 SW5       30.23F
AKRON          FAIR      41  33  73 W10       30.21F
BURLINGTON     FAIR      43  36  76 W13       30.19F
WRAY           NOT AVBL
YUMA           FAIR      41  36  81 W10       30.18S
STERLING       FAIR      41  36  81 SE5       30.18S
HOLYOKE        FAIR      54  41  62 NW14      30.15F
FORT MORGAN    FAIR      48  33  55 W7        30.22S
$$

COZ086-089-092>099-230900-
...SOUTHEAST COLORADO...

CITY           SKY/WX    TMP DP  RH WIND       PRES   REMARKS
PUEBLO         FAIR      36  27  69 CALM      30.24F
LA JUNTA       FAIR      41  29  62 W5        30.23S
LAMAR          FAIR      35  26  69 SW8       30.18F WCI  29
SPRINGFIELD      N/A     40  29  64 NW10      30.21S
$$




USA.gov is the U.S. government's official web portal to all federal, state and local government web resources and services.